Regional Weather Roundup
Issued by NWS

Home | Current Version | Previous Version | Text Only | Print | Product List | Glossary On
Versions: 1 2 3 4 5 6 7 8 9 10 11 12 13 14 15 16 17 18 19 20 21 22 23 24 25 26 27 28 29 30 31 32 33 34 35 36 37 38 39 40 41 42 43 44 45 46 47 48 49 50
000
ASUS44 KEWX 270003
RWRTX
SOUTH TEXAS REGIONAL WEATHER ROUNDUP
NATIONAL WEATHER SERVICE AUSTIN/SAN ANTONIO TX
700 PM CDT THU MAR 26 2015

NOTE: "FAIR" INDICATED FEW OR NO CLOUDS BELOW 12,000 FEET WITH NO
SIGNIFICANT WEATHER AND/OR OBSTRUCTIONS TO VISIBILITY.

* - THESE STATIONS ARE NOT NWS OR FAA STATIONS...AND ARE NOT SUBJECT
    TO NWS AND FAA QUALITY CONTROL.

TXZ171-172-183>190-270100-
TEXAS HILL COUNTRY AND EDWARDS PLATEAU

CITY           SKY/WX    TMP DP  RH WIND       PRES   REMARKS
JUNCTION       SUNNY     65  30  27 N14       30.13S
6HR MIN TEMP:  59; 6HR MAX TEMP:  67;

*LLANO         CLEAR     64  32  29 N13G18    30.15R
BURNET         CLEAR     64  29  26 N14G21    30.13R
6HR MIN TEMP:  62; 6HR MAX TEMP:  68;

*HORSESHOE BAY CLEAR     66  32  28 N9G20     30.11R
6HR MIN TEMP:  60; 6HR MAX TEMP:  69;

*KERRVILLE     SUNNY     64  37  37 N16G22    30.11R
*FREDERICKSBRG SUNNY     63  34  33 N16G24    30.11R
*ROCKSPRINGS   SUNNY     63  34  34 N9        30.15S
*BOERNE STAGE  CLEAR     64  36  34 N14G22    30.10R
*CASTROVILLE   SUNNY     69  41  36 N10       30.08S
HONDO          SUNNY     68  44  42 N13       30.10R
6HR MIN TEMP:  63; 6HR MAX TEMP:  72; 6HR PCP: TRACE;

*UVALDE        SUNNY     69  42  37 N10       30.10R
6HR MIN TEMP:  62; 6HR MAX TEMP:  71;

DEL RIO        SUNNY     72  37  28 N14       30.11R
6HR MIN TEMP:  62; 6HR MAX TEMP:  73;

LAUGHLIN AFB   NOT AVBL
CARRIZO SPRGS  PTSUNNY   70  43  37 N5        30.08S
$$

TXZ173-191>194-202-209-217>225-228-270100-
CENTRAL AND SOUTH CENTRAL TEXAS

CITY           SKY/WX    TMP DP  RH WIND       PRES   REMARKS
GEORGETOWN     CLEAR     66  34  30 N14G21    30.09R
AUSTIN/BERGSTM PTCLDY    67  41  38 N14       30.06S
6HR MIN TEMP:  61; 6HR MAX TEMP:  69;

AUSTIN/MABRY   CLEAR     67  36  31 N9G18     30.09R
6HR MIN TEMP:  61; 6HR MAX TEMP:  70;

*AUSTIN/EXEC   CLOUDY    66  37  34 N16       30.09R
*LAGO VISTA    CLEAR     65  32  28 N14G21    30.10S
6HR MIN TEMP:  59; 6HR MAX TEMP:  68;

SAN MARCOS     CLEAR     66  39  37 N13       30.07F
6HR MIN TEMP:  63; 6HR MAX TEMP:  70;

NEW BRAUNFELS  CLEAR     69  42  37 N18       30.05S
6HR MIN TEMP:  64; 6HR MAX TEMP:  72;

RANDOLPH AFB   NOT AVBL
PT SAN ANTONIO NOT AVBL
SAN ANTONIO    PTCLDY    69  42  37 N14G21    30.07R
6HR MIN TEMP:  64; 6HR MAX TEMP:  71;

STINSON FIELD  CLEAR     69  43  38 N10G21    30.05R
6HR MIN TEMP:  65; 6HR MAX TEMP:  71;

*PLEASANTON    CLEAR     69  44  41 NW9       30.06R
6HR MIN TEMP:  65; 6HR MAX TEMP:  70;

*LA GRANGE     MOCLDY    66  49  53 N8        30.04F
*GIDDINGS      MOCLDY    65  43  45 N12G20    30.10S
6HR MIN TEMP:  58; 6HR MAX TEMP:  66;

*GONZALES      MOCLDY    67  46  46 N17G24    30.04S
$$

TXZ163>164-176>182-195>201-210>213-226-227-235-270100-
SOUTHEAST TEXAS

CITY           SKY/WX    TMP DP  RH WIND       PRES   REMARKS
COLLEGE STN    MOCLDY    65  43  44 N12       30.06R
6HR MIN TEMP:  60; 6HR MAX TEMP:  67;

*BRYAN         MOCLDY    66  43  43 N13G24    30.07R
*CALDWELL      MOCLDY    64  39  39 NW14G21   30.10R
*CROCKETT      MOCLDY    66  48  52 N8        30.07R
*BRENHAM       MOCLDY    65  48  54 N10       30.06R
HUNTSVILLE     CLOUDY    62  47  57 N6        30.04R
6HR MIN TEMP:  57; 6HR MAX TEMP:  65;

CONROE         CLOUDY    62  47  57 N7        30.04R
6HR MIN TEMP:  58; 6HR MAX TEMP:  65;

HOUSTON BUSH   CLOUDY    63  49  60 NW13      30.03R
6HR MIN TEMP:  63; 6HR MAX TEMP:  69;

HOUSTON HOBBY  CLOUDY    65  50  58 N17G24    30.00R
6HR MIN TEMP:  63; 6HR MAX TEMP:  69;

*HOUSTON SW AP CLOUDY    67  54  63 NW10G20   30.02R
PEARLAND       CLOUDY    67  50  54 NW7       30.02R
6HR MIN TEMP:  65; 6HR MAX TEMP:  70;

HOUSTON HOOKS  CLOUDY    63  48  58 N8        30.04R
6HR MIN TEMP:  60; 6HR MAX TEMP:  69;

ELLINGTON FLD  NOT AVBL
SUGAR LAND     CLOUDY    65  48  54 N13       30.01S
6HR MIN TEMP:  64; 6HR MAX TEMP:  68;

*HOUSTON EXEC  CLOUDY    63  48  59 N12       30.04R
*CLEVELAND MUN CLOUDY    62  52  71 CALM      30.03R
*WHARTON       CLOUDY    62  51  66 N17G23    30.01F
6HR MIN TEMP:  61; 6HR MAX TEMP:  66;

*COLUMBUS      FAIR      63  49  61 N13       30.03F
$$

TXZ214>216-236>238-270100-
THE UPPER TEXAS COAST

CITY           SKY/WX    TMP DP  RH WIND       PRES   REMARKS
*ORANGE        CLOUDY    61  50  66 NW13G22   30.00R
6HR MIN TEMP:  61; 6HR MAX TEMP:  69;

PORT ARTHUR    CLOUDY    63  53  70 NW14      29.98R
6HR MIN TEMP:  63; 6HR MAX TEMP:  69;

GALVESTON      CLOUDY    65  54  67 N20       29.99S
6HR MIN TEMP:  65; 6HR MAX TEMP:  70;

ANGLETON       CLOUDY    64  53  67 N14G21    29.98F
6HR MIN TEMP:  63; 6HR MAX TEMP:  68;

*BAY CITY      CLOUDY    63  54  72 NW12G24   30.01R
PALACIOS       NOT AVBL
$$

TXZ229>234-239>247-270100-
TEXAS COASTAL BEND AND RIO GRANDE PLAINS

CITY           SKY/WX    TMP DP  RH WIND       PRES   REMARKS
VICTORIA       CLOUDY    64  49  57 N21G29    30.00F
6HR MIN TEMP:  61; 6HR MAX TEMP:  69; 6HR PCP:  0.01;

*BEEVILLE      CLOUDY    64  51  61 N8        30.05R
6HR MIN TEMP:  59; 6HR MAX TEMP:  70; 6HR PCP:  0.18;

ROCKPORT       CLOUDY    63  53  70 N17       29.99F
6HR MIN TEMP:  62; 6HR MAX TEMP:  73; 6HR PCP: TRACE;

*PORT ARANSAS  LGT RAIN  60  55  83 N17G23    30.01R
*PORT LAVACA   CLOUDY    62  53  73 N25G32    29.97F
*INGLESIDE     NOT AVBL
CORPUS CHRISTI CLOUDY    63  56  78 N12       30.02F
6HR MIN TEMP:  62; 6HR MAX TEMP:  72; 6HR PCP:  0.02;

CORPUS NAS     CLOUDY    64  54  69 N16       30.03R
6HR MIN TEMP:  63; 6HR MAX TEMP:  74; 6HR PCP: TRACE;

*ROBSTOWN      LGT RAIN  63  58  84 MISG      30.03S
ALICE          CLOUDY    65  52  62 NW7       30.04R
6HR MIN TEMP:  62; 6HR MAX TEMP:  74; 6HR PCP: TRACE;

KINGSVILLE NAS CLOUDY    65  55  70 NW13      30.05R
6HR MIN TEMP:  64; 6HR MAX TEMP:  74; 6HR PCP: TRACE;

COTULLA        PTSUNNY   70  44  39 N12       30.08R
6HR MIN TEMP:  63; 6HR MAX TEMP:  72; 6HR PCP: TRACE;

*FAITH RANCH   PTSUNNY   72  43  35 N15G21    30.09F
LAREDO         PTSUNNY   69  49  48 N13       30.09R
6HR MIN TEMP:  64; 6HR MAX TEMP:  71; 6HR PCP: TRACE;

$$

TXZ248>255-270100-
DEEP SOUTH TEXAS

CITY           SKY/WX    TMP DP  RH WIND       PRES   REMARKS
BROWNSVILLE    CLOUDY    68  59  73 N10       30.00S
6HR MIN TEMP:  67; 6HR MAX TEMP:  83; 6HR PCP:  0.01;

PORT ISABEL    CLOUDY    70  56  61 N20G29    30.00R
6HR MIN TEMP:  67; 6HR MAX TEMP:  82; 6HR PCP: TRACE;

*SOUTH PADRE   CLOUDY    66  61  82 N10       30.00S
HARLINGEN      CLOUDY    71  56  58 N13       30.01R
6HR MIN TEMP:  68; 6HR MAX TEMP:  84;

*HEBBRONVILLE  NOT AVBL
MCALLEN        CLOUDY    75  56  51 N13       30.03R
6HR MIN TEMP:  69; 6HR MAX TEMP:  85; 6HR PCP:  0.31;

*WESLACO       CLOUDY    71  55  56 N9        30.01R
FALFURRIAS     CLOUDY    66  51  59 N10G17    30.06R
6HR MIN TEMP:  63; 6HR MAX TEMP:  73;

EDINBURG       CLOUDY    74  53  48 N10G18    30.04R
6HR MIN TEMP:  69; 6HR MAX TEMP:  80; 6HR PCP:  0.01;

*ZAPATA        PTSUNNY   68  50  52 NW12      30.06S
$$

TXZ213>215-236>238-242>244-246-247-251-254-255-270100-
CMAN STATIONS

STATION/POSITION TIME  TEMP    WIND        PRES    WAVE
                       AIR SEA DIR/SP/G            HT/PER
                 (UTC) (F)     (DEG/KT/KT) (MB)    (FT/S)
$$

GMZ080-GMZ150>470-270100-
OFFSHORE BUOY REPORTS

STATION/POSITION TIME  TEMP    WIND        PRES    WAVE



USA.gov is the U.S. government's official web portal to all federal, state and local government web resources and services.